Location: Unspecified
(35.7250°N, 0.0000°E)
Time: 17:28:01
(UTC+00:00)

Vanguard 1 Rocket - Pass Details

Date: 16 June 2019
Orbit: 652 x 4224 km, 34.3° (Epoch: 16 August)

Event Time Altitude Azimuth Distance (km) Brightness Sun altitude
Rises 22:21:30 0° 276° (W) 4,376 11.3 -26.4°
Reaches altitude 10° 22:25:04 10° 274° (W) 2,963 10.3 -26.7°
Enters shadow 22:30:29 53° 244° (WSW) 986 7.4 -27.2°
Maximum altitude 22:31:28 65° 194° (SSW) 848 - -27.2°
Drops below altitude 10° 22:35:54 10° 112° (ESE) 2,075 - -27.6°
Sets 22:38:00 0° 109° (ESE) 2,954 - -27.8°
